FW9329 Weather Reports


time (UTC)temp
F
wind
direction
speed
knots
gust
knots
rain 1hr
in
rain 24hr
in
rain mn
in
humidity
%
barometer
mb
20260506190048 57 198 6.1 20.0 0.00 0.01 0.01 89 1008.9
20260506184554 57 202 5.2 19.1 0.01 0.01 0.01 90 1009.2
20260506183044 57 222 7.8 18.2 0.01 0.01 0.01 90 1009.2
20260506181559 56 198 7.0 18.2 0.01 0.01 0.01 89 1009.6
20260506180045 56 190 7.0 19.1 0.00 0.00 0.00 89 1009.8
20260506174543 57 209 5.2 20.9 0.00 0.00 0.00 88 1010.0
20260506173053 57 169 7.8 20.0 0.00 0.00 0.00 87 1010.4
20260506171544 58 179 5.2 19.1 0.00 0.00 0.00 85 1010.6
20260506170043 59 211 5.2 18.2 0.00 0.00 0.00 82 1010.6
20260506164547 59 196 6.1 23.5 0.00 0.00 0.00 83 1010.7
20260506163056 59 157 4.3 21.7 0.00 0.00 0.00 83 1010.6
20260506161544 59 195 5.2 17.4 0.00 0.00 0.00 81 1010.7
20260506160045 60 174 10.4 20.9 0.00 0.00 0.00 80 1011.0
20260506154552 61 0 6.1 20.0 0.00 0.00 0.00 80 1011.3
20260506153040 61 181 7.8 20.0 0.00 0.00 0.00 81 1011.4
20260506151547 61 240 7.0 17.4 0.00 0.00 0.00 81 1011.1
20260506150045 61 171 4.3 15.6 0.00 0.00 0.00 80 1011.4
20260506144542 62 207 2.6 15.6 0.00 0.00 0.00 79 1011.7
20260506143042 62 202 5.2 17.4 0.00 0.00 0.00 80 1011.7
20260506141545 61 226 6.1 19.1 0.00 0.00 0.00 82 1011.8
20260506140041 60 233 8.7 19.1 0.00 0.00 0.00 81 1012.0
20260506134545 60 289 3.5 13.9 0.00 0.00 0.00 83 1012.0
20260506133047 59 171 3.5 14.8 0.00 0.00 0.00 84 1012.0
20260506131542 59 196 6.1 26.9 0.00 0.00 0.00 84 1011.8
20260506130041 59 218 5.2 15.6 0.00 0.00 0.00 85 1011.8
20260506124548 58 179 6.1 17.4 0.00 0.00 0.00 86 1012.0
20260506123041 58 177 7.8 21.7 0.00 0.00 0.00 87 1012.1
20260506121553 57 190 3.5 16.5 0.00 0.00 0.00 88 1011.9
20260506120044 56 203 7.0 20.0 0.00 0.00 0.00 89 1011.7
20260506114542 55 0 6.1 20.9 0.00 0.00 0.00 90 1011.8
20260506113041 55 200 6.1 15.6 0.00 0.00 0.00 90 1011.9
20260506111547 55 0 6.1 18.2 0.00 0.00 0.00 90 1011.9
20260506110045 55 198 6.1 17.4 0.00 0.00 0.00 91 1011.9
20260506104547 54 200 5.2 15.6 0.00 0.00 0.00 91 1011.8
20260506103041 54 183 7.0 18.2 0.00 0.00 0.00 91 1011.7
20260506101541 54 155 6.1 18.2 0.00 0.00 0.00 91 1011.7
20260506100048 54 228 7.0 19.1 0.00 0.00 0.00 91 1011.6
20260506094546 54 202 5.2 14.8 0.00 0.00 0.00 91 1011.6
20260506093045 54 227 7.0 20.0 0.00 0.00 0.00 91 1011.4
20260506091542 55 206 5.2 22.6 0.00 0.00 0.00 90 1011.6
20260506090119 55 207 7.0 15.6 0.00 0.00 0.00 90 1011.6
20260506084545 55 225 6.1 18.2 0.00 0.00 0.00 90 1011.9
20260506083049 55 197 4.3 16.5 0.00 0.00 0.00 90 1012.0
20260506081548 55 187 5.2 20.0 0.00 0.00 0.00 90 1012.1
20260506073042 55 213 5.2 15.6 0.00 0.00 0.00 89 1012.5
20260506071542 55 229 4.3 14.8 0.00 0.00 0.00 89 1012.3
20260506061548 56 161 7.0 15.6 0.00 0.00 0.00 88 1012.1
20260506050104 56 196 6.1 18.2 0.00 0.00 0.00 88 1012.5
20260506044544 56 199 7.0 18.2 0.00 0.00 0.00 87 1012.5
20260506043045 56 180 8.7 17.4 0.00 0.00 0.00 87 1012.6
20260506041557 56 203 5.2 15.6 0.00 0.00 0.00 88 1012.6
20260506040047 56 236 6.1 15.6 0.00 0.00 0.00 88 1012.7
20260506034553 55 182 5.2 13.9 0.00 0.00 0.00 87 1013.0
20260506033047 55 244 3.5 13.0 0.00 0.00 0.00 87 1013.0
20260506031544 55 255 1.7 11.3 0.00 0.00 0.00 87 1013.0
20260506030043 55 230 4.3 14.8 0.00 0.00 0.00 87 1013.0
20260506024541 55 258 3.5 13.9 0.00 0.00 0.00 86 1013.1
20260506023049 56 271 1.7 12.2 0.00 0.00 0.00 85 1013.0
20260506021544 56 189 6.1 17.4 0.00 0.00 0.00 85 1012.8
20260506020051 56 181 7.0 14.8 0.00 0.00 0.00 84 1012.8
20260506014541 57 215 3.5 15.6 0.00 0.00 0.00 83 1012.7
20260506013051 57 198 5.2 18.2 0.00 0.00 0.00 83 1012.6
20260506011547 57 225 8.7 18.2 0.00 0.00 0.00 82 1012.3
20260506010048 57 208 6.1 23.5 0.00 0.00 0.00 82 1012.2
20260506004547 58 194 7.0 20.0 0.00 0.00 0.00 81 1012.0
20260506003041 58 205 7.8 31.3 0.00 0.00 0.00 80 1011.6
20260506001539 58 179 7.0 25.2 0.00 0.00 0.00 80 1011.6
20260506000052 58 207 7.8 21.7 0.00 0.00 0.00 80 1011.4
20260505234543 58 206 7.8 21.7 0.00 0.00 0.00 80 1011.1
20260505233046 58 59 8.7 22.6 0.00 0.00 0.00 79 1011.0
20260505231548 59 255 8.7 25.2 0.00 0.00 0.00 79 1010.7
20260505230112 59 201 9.6 24.3 0.00 0.00 0.00 78 1010.4
20260505224543 60 176 7.8 24.3 0.00 0.00 0.00 78 1010.5
20260505223051 60 167 7.0 25.2 0.00 0.00 0.00 78 1010.4
20260505221546 60 217 9.6 21.7 0.00 0.00 0.00 76 1010.3
20260505220054 61 212 6.1 20.0 0.00 0.00 0.00 75 1010.3
20260505214546 62 194 7.8 24.3 0.00 0.00 0.00 75 1010.0
20260505213043 62 173 10.4 22.6 0.00 0.00 0.00 74 1010.0
20260505211559 62 107 10.4 24.3 0.00 0.00 0.00 74 1009.7
20260505210048 63 191 8.7 24.3 0.00 0.00 0.00 72 1009.4
20260505204545 63 171 5.2 21.7 0.00 0.00 0.00 73 1009.6
20260505203044 63 177 8.7 24.3 0.00 0.00 0.00 72 1009.8
20260505201549 63 197 6.1 20.0 0.00 0.00 0.00 73 1009.8
20260505200043 64 0 5.2 19.1 0.00 0.00 0.00 73 1010.1
20260505194545 63 183 6.1 17.4 0.00 0.00 0.00 73 1010.5
20260505193052 63 0 7.8 15.6 0.00 0.00 0.00 74 1010.6
20260505191543 64 188 2.6 12.2 0.00 0.00 0.00 72 1011.2